Weather Roundup
Issued by NWS

Home | Current Version | Previous Version | Text Only | Print | Product List | Glossary On
Versions: 1 2 3 4 5 6 7 8 9 10 11 12 13 14 15 16 17 18 19 20 21 22 23 24 25 26 27 28 29 30 31 32 33 34 35 36 37 38 39 40 41 42 43 44 45 46 47 48 49 50
000
NZUS93 KARX 271210
HRRWXR

CURRENT HOURLY OBSERVATIONS ACROSS
MUCH OF THE UPPER MISSISSIPPI VALLEY
NATIONAL WEATHER SERVICE LA CROSSE WI
700 AM CDT THU APR 27 2017


...SOUTHEAST MINNESOTA...


CITY           SKY/WX    TMP DP  RH WIND       PRES   REMARKS
ROCHESTER      LGT SNOW  33  33 100 NW13      29.48S FOG     WCI  24
ROCHESTER/MAYO CLOUDY    34  34 100 NW8G17    29.49R WCI  27
WINONA         CLOUDY    36  32  87 N7G16     29.48S WCI  30
AUSTIN         LGT SNOW  34  30  86 NW14      29.51R WCI  24
ALBERT LEA     CLOUDY    30  28  93 NW10G21   29.52R WCI  21
DODGE CENTER   CLOUDY    32  30  93 NW14      29.49S WCI  22
PRESTON        CLOUDY    33  31  92 NW14      29.47F WCI  23
OWATONNA       CLOUDY    34  30  86 NW12      29.52S WCI  25
FARIBAULT      CLOUDY    34  30  86 NW9       29.53R WCI  26
$$

...ELSEWHERE IN MINNESOTA...


CITY           SKY/WX    TMP DP  RH WIND       PRES   REMARKS
MINNEAPOLIS    FLURRIES  34  30  85 NW14      29.52F WCI  25
INTNL FALLS    CLOUDY    21  12  68 NE14G23   29.63S WCI   8
DULUTH         CLOUDY    23  20  88 N12       29.50F WCI  12
RED WING       CLOUDY    36  28  75 N5        29.50S WCI  32
REDWOOD FALLS  LGT SNOW  30  27  88 NW12G23   29.59R FOG     WCI  20
MANKATO        CLOUDY    32  30  92 NW14      29.56S WCI  22
WORTHINGTON    CLOUDY    28  25  88 NW17G23   29.61S WCI  16
FAIRMONT       CLOUDY    30  28  92 NW16      29.58S WCI  19
$$

...SOUTHWEST WISCONSIN...


CITY           SKY/WX    TMP DP  RH WIND       PRES   REMARKS
LA CROSSE      CLOUDY    37  34  89 NW14      29.45S WCI  28
PRAIRIE DU CHI CLOUDY    37  36  97 W10       29.46R WCI  30
BOSCOBEL       LGT RAIN  37  34  89 VRB5      29.45R WCI  33
LONE ROCK      LGT RAIN  38  34  85 NW10      29.41S FOG     WCI  31
PLATTEVILLE    CLOUDY    37  37 100 W13G20    29.44R WCI  28
FORT MC COY    SNOW      32  32 100 NW7       29.45S VSB 1/2 WCI  26
CAMP DOUGLAS   SLEET     34  34 100 NW14      29.39F WCI  24
MAUSTON-NEW LI LGT RAIN  36  34  94 NW14      29.39S WCI  27
VIROQUA        CLOUDY    32  32 100 NW7       29.42S VSB 1/2 WCI  26
WIS DELLS      RAIN      37  36  96 W7G17     29.37S WCI  31
$$

...ELSEWHERE IN WISCONSIN...


CITY           SKY/WX    TMP DP  RH WIND       PRES   REMARKS
MILWAUKEE      LGT RAIN  50  48  93 NW12      29.28R FOG
MADISON        RAIN      40  38  93 NW8       29.35S FOG     WCI  34
GREEN BAY      HVY RAIN  42  41  96 N8        29.31R FOG
EAU CLAIRE     CLOUDY    33  28  81 N6        29.47R WCI  28
BLACK RVR FLS  SNOW      33  33 100 NW7       29.44F VSB 1/2 WCI  26
MEDFORD        MIX PCPN  30  28  93 NW9       29.40R WCI  22
WAUSAU         RAIN      33  31  92 NW8       29.35F FOG     WCI  26
WIS RAPIDS     RAIN      35  34  96 N12       29.38F FOG     WCI  27
MARSHFIELD     FRZ RAIN  32  30  92 NW16      29.38F FOG     WCI  21
RICE LAKE      CLOUDY    30  27  90 NW8       29.51R WCI  22
$$

...NORTHEAST IOWA...


CITY           SKY/WX    TMP DP  RH WIND       PRES   REMARKS
WATERLOO       CLOUDY    36  31  82 W12G20    29.53R WCI  28
DUBUQUE        LGT SNOW  33  32  96 W13       29.47R FOG     WCI  24
DECORAH        MIX PCPN  36  34  93 NW13G22   29.45S WCI  27
MASON CITY     CLOUDY    32  30  92 NW16      29.55R WCI  21
CHARLES CITY   CLOUDY    36  32  87 NW18      29.51S WCI  25
OELWEIN        CLOUDY    37  34  87 NW17      29.51R WCI  28
$$

...ELSEWHERE IN IOWA...


CITY           SKY/WX    TMP DP  RH WIND       PRES   REMARKS
DES MOINES     CLOUDY    37  30  75 NW18G25   29.61R WCI  27
IOWA CITY      CLOUDY    39  50 100 W12       29.57R WCI  32
FORT DODGE     CLOUDY    32  25  74 NW13G20   29.60S WCI  22
MARSHALLTOWN   CLOUDY    35  31  85 W17       29.57R WCI  25
CEDAR RAPIDS   CLOUDY    36  35  96 NW20G25   29.52R WCI  25
$$

...NORTHERN ILLINOIS...


CITY           SKY/WX    TMP DP  RH WIND       PRES   REMARKS
CHICAGO-OHARE  LGT RAIN  52  50  93 W17G24    29.31R FOG
CHICAGO-MIDWAY LGT RAIN  53  51  93 SW18G29   29.33R FOG
MOLINE         LGT RAIN  39  35  86 W17       29.53R WCI  30
ROCKFORD       LGT RAIN  44  40  85 NW15      29.39R
PEORIA         CLOUDY    42  39  89 W17G25    29.55R
$$

NOTE: "FAIR" INDICATES FEW OR NO CLOUDS BELOW 12,000 FEET WITH NO
SIGNIFICANT WEATHER AND/OR OBSTRUCTIONS TO VISIBILITY. WIND
SPEEDS ARE IN MILES-PER-HOUR.




USA.gov is the U.S. government's official web portal to all federal, state and local government web resources and services.